FW4624 Weather Reports


time (UTC)temp
C
wind
direction
speed
KPH
gust
KPH
rain 1hr
cm
rain 24hr
cm
rain mn
cm
humidity
%
barometer
mb
20260505041524 12 336 0.0 0.0 0.00 0.00 0.00 91 1010.5
20260505041024 12 336 0.0 0.0 0.00 0.00 0.00 91 1010.3
20260505040523 12 336 0.0 0.0 0.00 0.00 0.00 91 1010.3
20260505040023 12 336 0.0 0.0 0.00 0.00 0.00 91 1010.4
20260505035522 12 336 0.0 0.0 0.00 0.00 0.00 91 1010.4
20260505035022 12 336 0.0 0.0 0.00 0.00 0.00 91 1010.4
20260505034525 12 336 0.0 0.0 0.00 0.00 0.00 91 1010.3
20260505034022 12 336 0.0 3.2 0.00 0.00 0.00 91 1010.4
20260505033525 12 336 0.0 3.2 0.00 0.00 0.00 91 1010.4
20260505033022 12 336 0.0 0.0 0.00 0.00 0.00 91 1010.4
20260505032520 13 336 0.0 4.8 0.00 0.00 0.00 91 1010.5
20260505032019 13 336 0.0 4.8 0.00 0.00 0.00 91 1010.6
20260505031520 13 336 1.6 4.8 0.00 0.00 0.00 91 1010.7
20260505031019 13 336 1.6 4.8 0.00 0.00 0.00 91 1010.8
20260505030519 13 336 0.0 3.2 0.00 0.00 0.00 91 1010.8
20260505030019 13 336 1.6 4.8 0.00 0.00 0.00 91 1010.8
20260505025520 13 336 1.6 4.8 0.00 0.00 0.00 91 1010.8
20260505025018 13 336 1.6 4.8 0.00 0.00 0.00 91 1010.8
20260505024518 13 336 1.6 4.8 0.00 0.00 0.00 91 1010.9
20260505024021 13 336 1.6 4.8 0.00 0.00 0.00 92 1011.0
20260505023517 13 336 1.6 4.8 0.00 0.00 0.00 92 1011.0
20260505023016 13 336 1.6 4.8 0.00 0.00 0.00 92 1011.1
20260505022516 13 336 0.0 4.8 0.00 0.00 0.00 92 1011.1
20260505022016 13 336 1.6 4.8 0.00 0.00 0.00 92 1011.2
20260505021516 13 336 1.6 4.8 0.00 0.00 0.00 92 1011.3
20260505021015 12 336 1.6 4.8 0.00 0.00 0.00 92 1011.3
20260505020514 12 336 1.6 3.2 0.00 0.00 0.00 92 1011.3
20260505020015 12 336 0.0 3.2 0.00 0.00 0.00 92 1011.4
20260505015514 12 336 0.0 1.6 0.00 0.00 0.00 92 1011.4
20260505015014 12 336 0.0 0.0 0.00 0.00 0.00 92 1011.3
20260505014513 12 336 0.0 0.0 0.00 0.00 0.00 92 1011.4
20260505014013 12 336 0.0 0.0 0.00 0.00 0.00 92 1011.4
20260505013513 12 336 0.0 0.0 0.00 0.00 0.00 92 1011.5
20260505013012 12 336 0.0 1.6 0.00 0.00 0.00 92 1011.4
20260505012512 12 336 0.0 3.2 0.00 0.00 0.00 92 1011.4
20260505012012 13 336 1.6 3.2 0.00 0.00 0.00 92 1011.5
20260505011520 13 336 0.0 3.2 0.00 0.00 0.00 91 1011.6
20260505011010 13 336 0.0 3.2 0.00 0.00 0.00 92 1011.6
20260505010514 13 336 1.6 3.2 0.00 0.00 0.00 92 1011.5
20260505010014 13 336 0.0 3.2 0.00 0.00 0.00 91 1011.6
20260505005511 13 336 1.6 3.2 0.00 0.00 0.00 91 1011.7
20260505005007 13 336 1.6 3.2 0.00 0.00 0.00 91 1011.9
20260505004507 13 336 0.0 3.2 0.00 0.00 0.00 91 1011.8
20260505004006 13 336 1.6 3.2 0.00 0.00 0.00 91 1011.9
20260505003505 13 336 0.0 3.2 0.00 0.00 0.00 91 1011.9
20260505003005 13 336 0.0 3.2 0.00 0.00 0.00 91 1012.0
20260505002504 13 336 0.0 3.2 0.00 0.00 0.00 91 1012.0
20260505002007 13 336 1.6 3.2 0.00 0.00 0.00 91 1012.2
20260505001503 13 336 0.0 3.2 0.00 0.00 0.00 91 1012.3
20260505001005 13 336 0.0 3.2 0.00 0.00 0.00 91 1012.3
20260505000505 13 336 1.6 3.2 0.00 0.00 0.00 91 1012.2
20260505000003 13 336 1.6 3.2 0.00 0.00 0.00 91 1012.3
20260504235503 13 336 0.0 4.8 0.00 0.00 0.00 91 1012.2
20260504235003 13 336 1.6 6.4 0.00 0.00 0.00 90 1012.3
20260504234501 13 336 1.6 4.8 0.00 0.00 0.00 90 1012.5
20260504234100 13 336 0.0 4.8 0.00 0.00 0.00 90 1012.4
20260504233602 13 336 1.6 4.8 0.00 0.00 0.00 90 1012.3
20260504233112 13 336 0.0 4.8 0.00 0.00 0.00 90 1012.4
20260504232559 13 336 0.0 6.4 0.00 0.00 0.00 90 1012.5
20260504232059 13 336 3.2 4.8 0.00 0.00 0.00 89 1012.6
20260504231559 13 336 1.6 4.8 0.00 0.00 0.00 89 1012.7
20260504231056 13 336 1.6 8.0 0.00 0.00 0.00 89 1012.8
20260504230558 13 336 1.6 8.0 0.00 0.00 0.00 89 1012.9
20260504230057 13 336 0.0 8.0 0.00 0.00 0.00 88 1013.0
20260504225556 14 336 3.2 8.0 0.00 0.00 0.00 88 1013.1
20260504225054 14 336 1.6 6.4 0.00 0.00 0.00 88 1013.0
20260504224553 14 336 1.6 6.4 0.00 0.00 0.00 87 1013.1
20260504224053 14 337 1.6 6.4 0.00 0.00 0.00 87 1013.2
20260504223553 14 337 0.0 6.4 0.00 0.00 0.00 87 1013.3
20260504223052 14 337 1.6 6.4 0.00 0.00 0.00 87 1013.2
20260504222556 14 337 1.6 6.4 0.00 0.00 0.00 87 1013.2
20260504222051 14 337 0.0 1.6 0.00 0.00 0.00 87 1013.2
20260504221550 14 337 0.0 1.6 0.00 0.00 0.00 87 1013.3
20260504221050 14 337 0.0 1.6 0.00 0.00 0.00 87 1013.2
20260504220549 14 337 0.0 1.6 0.00 0.00 0.00 87 1013.2
20260504220048 14 337 0.0 1.6 0.00 0.00 0.00 87 1013.3
20260504215548 14 337 0.0 4.8 0.00 0.00 0.00 87 1013.3
20260504215048 14 337 0.0 4.8 0.00 0.00 0.00 86 1013.4
20260504214549 14 337 0.0 3.2 0.00 0.00 0.00 86 1013.3
20260504214048 14 337 0.0 0.0 0.00 0.00 0.00 86 1013.4
20260504213548 14 337 0.0 0.0 0.00 0.00 0.00 86 1013.3
20260504213050 14 337 0.0 3.2 0.00 0.00 0.00 86 1013.4
20260504212547 14 337 0.0 3.2 0.00 0.00 0.00 86 1013.4
20260504212048 14 337 0.0 1.6 0.00 0.00 0.00 86 1013.4
20260504211547 14 337 0.0 1.6 0.00 0.00 0.00 86 1013.5
20260504211047 14 337 0.0 1.6 0.00 0.00 0.00 86 1013.5
20260504210547 14 337 0.0 3.2 0.00 0.00 0.00 86 1013.5
20260504210047 14 337 0.0 3.2 0.00 0.00 0.00 86 1013.5
20260504205547 15 337 0.0 3.2 0.00 0.00 0.00 85 1013.6
20260504205047 15 337 0.0 3.2 0.00 0.00 0.00 85 1013.5
20260504204547 15 337 0.0 4.8 0.00 0.00 0.00 85 1013.5
20260504204046 15 337 0.0 4.8 0.00 0.00 0.00 85 1013.4
20260504203547 15 337 0.0 4.8 0.00 0.00 0.00 85 1013.4
20260504203049 15 337 0.0 3.2 0.00 0.00 0.00 85 1013.4
20260504202546 15 337 0.0 6.4 0.00 0.00 0.00 84 1013.4
20260504202048 15 337 1.6 6.4 0.00 0.00 0.00 84 1013.2
20260504201546 15 337 3.2 6.4 0.00 0.00 0.00 84 1013.3
20260504201045 15 337 0.0 4.8 0.00 0.00 0.00 84 1013.2
20260504200546 15 337 1.6 4.8 0.00 0.00 0.00 84 1013.2
20260504200045 15 337 1.6 3.2 0.00 0.00 0.00 84 1013.3
20260504195544 15 337 0.0 4.8 0.00 0.00 0.00 84 1013.2
20260504195045 15 337 0.0 3.2 0.00 0.00 0.00 84 1013.1
20260504194548 15 337 0.0 4.8 0.00 0.00 0.00 83 1013.1
20260504194045 15 337 1.6 4.8 0.00 0.00 0.00 83 1013.1
20260504193544 15 337 1.6 8.0 0.00 0.00 0.00 83 1013.1
20260504193044 15 337 1.6 8.0 0.00 0.00 0.00 82 1013.0
20260504192545 15 337 0.0 1.6 0.00 0.00 0.00 82 1013.0
20260504192044 16 337 0.0 3.2 0.00 0.00 0.00 81 1013.2
20260504191559 16 337 0.0 4.8 0.00 0.00 0.00 81 1013.0
20260504191044 16 337 1.6 6.4 0.00 0.00 0.00 80 1013.0
20260504190547 16 338 1.6 6.4 0.00 0.00 0.00 80 1013.0
20260504190046 16 342 3.2 6.4 0.00 0.00 0.00 79 1012.9
20260504185543 16 342 0.0 4.8 0.00 0.00 0.00 79 1012.7
20260504185046 16 342 0.0 8.0 0.00 0.00 0.00 79 1012.5
20260504184543 16 342 1.6 12.9 0.00 0.00 0.00 79 1012.5
20260504184043 16 329 6.4 12.9 0.00 0.00 0.00 78 1012.4
20260504183542 16 346 3.2 4.8 0.00 0.00 0.00 79 1012.7
20260504183042 16 346 0.0 4.8 0.00 0.00 0.00 79 1012.9
20260504182541 16 346 1.6 6.4 0.00 0.00 0.00 78 1012.9
20260504182041 16 346 1.6 6.4 0.00 0.00 0.00 78 1012.8
20260504181541 16 346 0.0 4.8 0.00 0.00 0.00 78 1012.8
20260504181040 16 346 3.2 4.8 0.00 0.00 0.00 77 1012.7
20260504180540 16 346 1.6 4.8 0.00 0.00 0.00 76 1012.7
20260504180040 16 346 1.6 6.4 0.00 0.00 0.00 75 1012.8
20260504175541 16 346 1.6 6.4 0.00 0.00 0.00 74 1012.9
20260504175039 17 346 1.6 8.0 0.00 0.00 0.00 73 1012.8
20260504174539 17 347 3.2 8.0 0.00 0.00 0.00 73 1012.9
20260504174040 17 346 3.2 9.7 0.00 0.00 0.00 72 1012.9
20260504173539 17 346 3.2 9.7 0.00 0.00 0.00 72 1012.9
20260504173039 17 348 1.6 8.0 0.00 0.00 0.00 72 1013.0
20260504172541 17 5 1.6 14.5 0.00 0.00 0.00 71 1013.1
20260504172038 17 5 3.2 14.5 0.00 0.00 0.00 72 1013.2
20260504171546 17 335 1.6 9.7 0.00 0.00 0.00 72 1013.2
20260504171038 17 335 3.2 9.7 0.00 0.00 0.00 71 1013.2
20260504170538 17 334 1.6 8.0 0.00 0.00 0.00 72 1013.1
20260504151035 21 250 9.7 14.5 0.00 0.00 0.00 55 1012.9
20260504150534 21 196 6.4 14.5 0.00 0.00 0.00 54 1012.8
20260504141031 21 196 9.7 17.7 0.00 0.00 0.00 50 1013.0
20260504140532 21 188 9.7 16.1 0.00 0.00 0.00 50 1013.0
20260504130530 22 202 6.4 17.7 0.00 0.00 0.00 48 1013.1
20260504110516 21 211 3.2 11.3 0.00 0.00 0.00 51 1013.9
20260504100510 20 226 6.4 11.3 0.00 0.00 0.00 56 1014.5
20260504082005 17 206 3.2 8.0 0.00 0.00 0.00 60 1014.8
20260504081506 18 207 1.6 9.7 0.00 0.00 0.00 60 1014.9
20260504081002 18 218 3.2 9.7 0.00 0.00 0.00 60 1015.0
20260504080601 17 232 4.8 9.7 0.00 0.00 0.00 57 1014.8
20260504050539 10 219 0.0 3.2 0.00 0.00 0.00 87 1014.5
20260504045541 9 219 0.0 1.6 0.00 0.00 0.00 88 1014.4
20260504045038 9 219 0.0 1.6 0.00 0.00 0.00 88 1014.4
20260504044538 9 219 0.0 3.2 0.00 0.00 0.00 88 1014.3
20260504044038 8 219 0.0 3.2 0.00 0.00 0.00 88 1014.4
20260504043538 8 219 0.0 1.6 0.00 0.00 0.00 88 1014.4
20260504043046 8 219 0.0 1.6 0.00 0.00 0.00 88 1014.3
20260504042540 8 219 0.0 1.6 0.00 0.00 0.00 89 1014.2
20260504042036 8 219 0.0 3.2 0.00 0.00 0.00 89 1014.2